Weather History for Perry, IA

Change the Weather History Date:

Thursday, November 15, 2012

  Actual Average Record
Temperature  
Mean Temperature 48 °F -  
Max Temperature 61 °F 46 °F 74 °F (1990)
Min Temperature 33 °F 26 °F 5 °F (1959)
Degree Days  
Heating Degree Days 17    
Moisture  
Dew Point 32 °F    
Average Humidity 58    
Maximum Humidity 85    
Minimum Humidity 30    
Precipitation  
Precipitation 0.00 in - - ()
Sea Level Pressure  
Sea Level Pressure 30.28 in    
Wind  
Wind Speed 8 mph (WNW)    
Max Wind Speed 13 mph    
Max Gust Speed 16 mph    
Visibility 10 miles    
Events      
Averages and records for this station are not official NWS values.
T = Trace of Precipitation, MM = Missing Value Source: NWS Daily Summary

Daily Weather History Graph

Daily Weather History Graph

Search for Another Location

Airport:

Trip Planner

Search our weather history database for the weather conditions in past years. The results will help you decide how hot, cold, wet, or windy it might be!

Date:

Astronomy

Nov. 15, 2012 Rise Set
Actual Time 7:06 AM CST 4:55 PM CST
Civil Twilight 6:36 AM CST 5:25 PM CST
Nautical Twilight 6:03 AM CST 5:59 PM CST
Astronomical Twilight 5:30 AM CST 6:32 PM CST
Moon 9:04 AM CST (11/15) 6:46 PM CST (11/15)
Length of Visible Light 10h 48m
Length of Day
9h 48m
Waxing Crescent, 5% of the Moon is Illuminated
Nov 15
Waxing Crescent
Nov 20
First Quarter
Nov 28
Full
Dec 6
Last Quarter
Dec 13
New

Hourly Weather History & Observations

Time (CST) Temp. Windchill Dew Point Humidity Pressure Visibility Wind Dir Wind Speed Gust Speed Precip Events Conditions
12:15 AM 41.9 °F 36.9 °F 31.5 °F 66% 30.23 in 10.0 mi SSE 8.1 mph - N/A   Overcast
12:55 AM 41.5 °F 36.4 °F 31.6 °F 68% 30.22 in 10.0 mi SSE 8.1 mph - N/A   Scattered Clouds
1:15 AM 41.4 °F 36.8 °F 31.8 °F 69% 30.21 in 10.0 mi South 6.9 mph - N/A   Clear
1:35 AM 41.5 °F 35.4 °F 31.8 °F 68% 30.21 in 10.0 mi South 10.4 mph - N/A   Mostly Cloudy
1:55 AM 41.9 °F 37.5 °F 31.8 °F 67% 30.21 in 10.0 mi SSE 6.9 mph - N/A   Mostly Cloudy
2:15 AM 41.0 °F 37.1 °F 32.0 °F 70% 30.22 in 10.0 mi SSE 5.8 mph - N/A   Scattered Clouds
2:35 AM 40.8 °F 38.8 °F 32.0 °F 71% 30.22 in 10.0 mi SSE 3.5 mph - N/A   Scattered Clouds
2:55 AM 40.5 °F 37.3 °F 32.2 °F 72% 30.22 in 10.0 mi SSE 4.6 mph - N/A   Overcast
3:15 AM 40.5 °F 36.5 °F 32.7 °F 74% 30.22 in 10.0 mi South 5.8 mph - N/A   Overcast
3:35 AM 42.3 °F 38.6 °F 32.2 °F 67% 30.21 in 10.0 mi South 5.8 mph - N/A   Mostly Cloudy
3:55 AM 41.0 °F 35.8 °F 32.9 °F 73% 30.21 in 10.0 mi South 8.1 mph - N/A   Mostly Cloudy
4:15 AM 42.1 °F 37.1 °F 32.9 °F 70% 30.21 in 10.0 mi South 8.1 mph - N/A   Mostly Cloudy
4:35 AM 43.0 °F 38.2 °F 32.4 °F 66% 30.21 in 10.0 mi South 8.1 mph - N/A   Overcast
4:55 AM 42.8 °F 38.0 °F 32.9 °F 68% 30.21 in 10.0 mi South 8.1 mph - N/A   Overcast
5:15 AM 43.7 °F 39.1 °F 32.4 °F 64% 30.22 in 10.0 mi South 8.1 mph - N/A   Overcast
5:35 AM 43.7 °F 38.1 °F 32.5 °F 65% 30.21 in 10.0 mi South 10.4 mph - N/A   Overcast
5:55 AM 44.6 °F 42.2 °F 32.0 °F 61% 30.22 in 10.0 mi South 4.6 mph - N/A   Overcast
6:15 AM 43.2 °F 38.4 °F 32.4 °F 66% 30.22 in 10.0 mi South 8.1 mph - N/A   Mostly Cloudy
6:35 AM 43.0 °F 38.2 °F 32.4 °F 66% 30.22 in 10.0 mi South 8.1 mph - N/A   Mostly Cloudy
6:55 AM 42.6 °F 38.4 °F 32.5 °F 68% 30.24 in 10.0 mi South 6.9 mph - N/A   Mostly Cloudy
7:15 AM 42.1 °F 37.1 °F 32.9 °F 70% 30.24 in 10.0 mi South 8.1 mph - N/A   Overcast
7:35 AM 42.3 °F 36.8 °F 32.9 °F 69% 30.24 in 10.0 mi South 9.2 mph - N/A   Mostly Cloudy
7:55 AM 42.8 °F 39.3 °F 32.7 °F 68% 30.24 in 10.0 mi SSW 5.8 mph - N/A   Scattered Clouds
8:15 AM 43.9 °F 40.5 °F 32.5 °F 64% 30.25 in 10.0 mi SW 5.8 mph - N/A   Clear
8:35 AM 44.6 °F 40.7 °F 32.9 °F 64% 30.26 in 10.0 mi SW 6.9 mph - N/A   Clear
8:55 AM 45.7 °F 41.0 °F 32.9 °F 61% 30.26 in 10.0 mi SW 9.2 mph - N/A   Clear
9:15 AM 47.5 °F - 33.3 °F 58% 30.26 in 10.0 mi WSW 8.1 mph - N/A   Clear
9:35 AM 50.0 °F - 33.1 °F 52% 30.27 in 10.0 mi WSW 9.2 mph - N/A   Clear
9:55 AM 51.8 °F - 32.4 °F 48% 30.27 in 10.0 mi WSW 10.4 mph - N/A   Clear
10:15 AM 53.4 °F - 32.7 °F 45% 30.28 in 10.0 mi West 11.5 mph - N/A   Clear
10:35 AM 54.9 °F - 32.4 °F 42% 30.29 in 10.0 mi WNW 10.4 mph 16.1 mph N/A   Mostly Cloudy
10:55 AM 53.1 °F - 32.0 °F 45% 30.28 in 10.0 mi WNW 10.4 mph - N/A   Scattered Clouds
11:15 AM 54.1 °F - 32.0 °F 43% 30.28 in 10.0 mi WNW 8.1 mph - N/A   Clear
11:35 AM 55.2 °F - 32.7 °F 43% 30.28 in 10.0 mi West 9.2 mph - N/A   Clear
11:55 AM 56.3 °F - 32.5 °F 41% 30.27 in 10.0 mi West 6.9 mph - N/A   Clear
12:15 PM 59.0 °F - 32.9 °F 37% 30.27 in 10.0 mi West 9.2 mph - N/A   Clear
12:35 PM 59.5 °F - 32.2 °F 36% 30.26 in 10.0 mi WNW 6.9 mph - N/A   Clear
12:55 PM 60.6 °F - 32.0 °F 34% 30.26 in 10.0 mi WNW 8.1 mph - N/A   Clear
1:15 PM 61.0 °F - 31.6 °F 33% 30.26 in 10.0 mi NW 10.4 mph - N/A   Clear
1:35 PM 61.2 °F - 31.3 °F 32% 30.26 in 10.0 mi NNW 8.1 mph - N/A   Clear
1:55 PM 61.2 °F - 29.5 °F 30% 30.26 in 10.0 mi NNW 8.1 mph - N/A   Clear
2:15 PM 61.3 °F - 30.7 °F 32% 30.26 in 10.0 mi NNW 8.1 mph - N/A   Clear
2:35 PM 61.3 °F - 31.1 °F 32% 30.26 in 10.0 mi NNW 8.1 mph - N/A   Clear
2:55 PM 61.7 °F - 30.9 °F 31% 30.26 in 10.0 mi NNW 10.4 mph - N/A   Clear
3:15 PM 61.0 °F - 31.1 °F 32% 30.27 in 10.0 mi North 9.2 mph - N/A   Clear
3:35 PM 60.8 °F - 30.7 °F 32% 30.28 in 10.0 mi North 10.4 mph - N/A   Clear
3:55 PM 59.9 °F - 29.8 °F 32% 30.28 in 10.0 mi NNW 10.4 mph - N/A   Clear
4:15 PM 58.6 °F - 31.1 °F 35% 30.29 in 10.0 mi NNW 10.4 mph - N/A   Clear
4:35 PM 56.8 °F - 32.0 °F 39% 30.30 in 10.0 mi North 9.2 mph - N/A   Clear
4:55 PM 54.9 °F - 32.9 °F 43% 30.30 in 10.0 mi North 9.2 mph - N/A   Clear
5:35 PM 51.4 °F - 33.1 °F 50% 30.32 in 10.0 mi North 9.2 mph - N/A   Clear
5:55 PM 50.4 °F - 33.1 °F 52% 30.33 in 10.0 mi NNW 9.2 mph - N/A   Clear
6:15 PM 48.9 °F - 33.3 °F 55% 30.34 in 10.0 mi NNW 6.9 mph - N/A   Clear
6:35 PM 48.7 °F - 33.8 °F 56% 30.35 in 10.0 mi NNW 9.2 mph - N/A   Clear
6:55 PM 49.1 °F - 32.9 °F 54% 30.36 in 10.0 mi North 12.7 mph - N/A   Clear
7:35 PM 47.8 °F - 32.4 °F 55% 30.37 in 10.0 mi North 11.5 mph - N/A   Clear
7:55 PM 46.6 °F - 32.4 °F 58% 30.38 in 10.0 mi North 10.4 mph - N/A   Clear
8:15 PM 44.6 °F 39.2 °F 32.9 °F 64% 30.38 in 10.0 mi North 10.4 mph - N/A   Clear
8:55 PM 42.3 °F 35.9 °F 32.9 °F 69% 30.39 in 10.0 mi North 11.5 mph - N/A   Clear
9:15 PM 41.0 °F 35.2 °F 32.7 °F 72% 30.41 in 10.0 mi North 9.2 mph - N/A   Clear
9:35 PM 39.6 °F 34.0 °F 32.4 °F 75% 30.41 in 10.0 mi North 8.1 mph - N/A   Clear
9:55 PM 38.5 °F 33.4 °F 32.0 °F 78% 30.41 in 10.0 mi North 6.9 mph - N/A   Clear
10:15 PM 36.9 °F 31.4 °F 31.8 °F 82% 30.41 in 10.0 mi North 6.9 mph - N/A   Clear
10:35 PM 36.5 °F 31.8 °F 31.6 °F 83% 30.41 in 10.0 mi NNW 5.8 mph - N/A   Clear
10:55 PM 35.8 °F 30.1 °F 31.5 °F 84% 30.42 in 10.0 mi NNW 6.9 mph - N/A   Clear
11:15 PM 35.6 °F 30.7 °F 30.7 °F 82% 30.43 in 10.0 mi NNW 5.8 mph - N/A   Clear
11:35 PM 35.1 °F 27.9 °F 30.2 °F 82% 30.43 in 10.0 mi NNW 9.2 mph - N/A   Clear
11:55 PM 33.8 °F 27.0 °F 29.7 °F 85% 30.43 in 10.0 mi NNW 8.1 mph - N/A   Clear